Weather History for West Plains, MO

Change the Weather History Date:

Wednesday, July 3, 2013

  Actual Average Record
Temperature  
Mean Temperature 68 °F 77 °F  
Max Temperature 82 °F 88 °F 99 °F (1954)
Min Temperature 53 °F 67 °F 49 °F (1959)
Degree Days  
Heating Degree Days 0 0  
Month to date heating degree days 0 0  
Since 1 June heating degree days 9 5  
Since 1 July heating degree days 0 0  
Cooling Degree Days 3 12  
Month to date cooling degree days 9 36  
Year to date cooling degree days 269 424  
Since 1 June cooling degree days 157 302  
Growing Degree Days 17 (Base 50)    
Moisture  
Dew Point 54 °F    
Average Humidity 66    
Maximum Humidity 93    
Minimum Humidity 39    
Precipitation  
Precipitation 0.00 in 0.10 in 1.26 in (2008)
Month to date precipitation 0.00 0.30  
Year to date precipitation 25.49 23.59  
Sea Level Pressure  
Sea Level Pressure 30.07 in    
Wind  
Wind Speed 2 mph (WSW)    
Max Wind Speed 10 mph    
Max Gust Speed 14 mph    
Visibility 10 miles    
Events      
T = Trace of Precipitation, MM = Missing Value Source: NWS Daily Summary

Daily Weather History Graph

Daily Weather History Graph

Search for Another Location

Airport:

Trip Planner

Search our weather history database for the weather conditions in past years. The results will help you decide how hot, cold, wet, or windy it might be!

Date:

Astronomy

Jul. 03, 2013 Rise Set
Actual Time 5:53 AM CDT 8:30 PM CDT
Civil Twilight 5:22 AM CDT 9:01 PM CDT
Nautical Twilight 4:44 AM CDT 9:39 PM CDT
Astronomical Twilight 4:02 AM CDT 10:21 PM CDT
Moon 2:28 AM CDT (7/3) 4:43 PM CDT (7/3)
Length of Visible Light 15h 38m
Length of Day
14h 37m
Waning Crescent, 18% of the Moon is Illuminated
Jul 3
Waning Crescent
Jul 8
New
Jul 15
First Quarter
Jul 22
Full
Jul 29
Last Quarter

Hourly Weather History & Observations

Time (CDT) Temp. Heat Index Dew Point Humidity Pressure Visibility Wind Dir Wind Speed Gust Speed Precip Events Conditions
12:53 AM 55.0 °F - 52.0 °F 89% 30.08 in 10.0 mi Calm Calm - N/A   Clear
1:53 AM 55.0 °F - 52.0 °F 89% 30.07 in 10.0 mi Calm Calm - N/A   Clear
2:53 AM 54.0 °F - 51.1 °F 90% 30.06 in 10.0 mi SW 3.5 mph - N/A   Clear
3:53 AM 54.0 °F - 51.1 °F 90% 30.07 in 10.0 mi Calm Calm - N/A   Clear
4:53 AM 55.0 °F - 51.1 °F 86% 30.07 in 10.0 mi Calm Calm - N/A   Clear
5:53 AM 55.0 °F - 52.0 °F 89% 30.09 in 10.0 mi West 5.8 mph - N/A   Clear
6:53 AM 59.0 °F - 54.0 °F 83% 30.09 in 10.0 mi West 3.5 mph - N/A   Clear
7:53 AM 61.0 °F - 54.0 °F 78% 30.11 in 10.0 mi Calm Calm - N/A   Clear
8:53 AM 68.0 °F - 51.1 °F 55% 30.12 in 10.0 mi SW 5.8 mph - N/A   Clear
9:53 AM 70.0 °F - 54.0 °F 57% 30.12 in 10.0 mi WSW 4.6 mph - N/A   Clear
10:53 AM 73.9 °F - 57.0 °F 55% 30.12 in 10.0 mi NW 4.6 mph - N/A   Clear
11:53 AM 78.1 °F - 54.0 °F 43% 30.10 in 10.0 mi Calm Calm - N/A   Clear
12:53 PM 77.0 °F - 54.0 °F 45% 30.10 in 10.0 mi WSW 6.9 mph - N/A   Partly Cloudy
1:53 PM 80.1 °F 80.0 °F 54.0 °F 40% 30.07 in 10.0 mi Calm Calm - N/A   Scattered Clouds
2:53 PM 79.0 °F - 55.0 °F 44% 30.06 in 10.0 mi NE 4.6 mph - N/A   Partly Cloudy
3:53 PM 78.1 °F - 55.9 °F 46% 30.06 in 10.0 mi ESE 5.8 mph - N/A   Mostly Cloudy
4:53 PM 80.1 °F 79.9 °F 53.1 °F 39% 30.04 in 10.0 mi NE 3.5 mph - N/A   Partly Cloudy
5:53 PM 79.0 °F - 53.1 °F 40% 30.03 in 10.0 mi Calm Calm - N/A   Clear
6:53 PM 79.0 °F - 54.0 °F 42% 30.03 in 10.0 mi SE 4.6 mph - N/A   Clear
7:53 PM 75.9 °F - 57.0 °F 52% 30.04 in 10.0 mi Calm Calm - N/A   Clear
8:53 PM 68.0 °F - 59.0 °F 73% 30.04 in 10.0 mi Calm Calm - N/A   Clear
9:53 PM 68.0 °F - 59.0 °F 73% 30.06 in 10.0 mi SE 4.6 mph - N/A   Clear
10:53 PM 68.0 °F - 57.0 °F 68% 30.07 in 10.0 mi Calm Calm - N/A   Partly Cloudy
11:53 PM 64.0 °F - 57.0 °F 78% 30.08 in 10.0 mi Calm Calm - N/A   Clear